ICEYE-X19 (52758 NORAD) Tracking and Keplerian Element Data

This shows tracking and keplerian element data for the satellite.

Feedback or suggestion? Click here.




ElementValue
Catalog52758
NameICEYE-X19
Epoch Orbit713
Epoch Day192.93268816
Epoch Year2022
RAAN307.293
Inclination97.5192
Eccentricity0.001284
Argument of Perigee78.9234
Mean Anonmoly43.9897
Mean Motion15.13073834
Decay Rate6.237E-05
L11 52758U 22057AC 22192.93268816 .00006237 00000+0 35553-3 0 9993
L22 52758 97.5192 307.2930 0012840 78.9234 43.9897 15.13073834 7130

Live tracking and technical data element details for ICEYE-X19 (NORAD 52758). ICEYE-X19 can be tracked NOW for your location showing map with azimuth and elevation plus other details from your city location.

Track the satellite on the map from your city or location and see movement details for azimuth, elevation, latitude, longitude, range, height, and movement on the map or in text.







IsCatalogInMostPopularTable: catalog: 52758, numindb: 4
Update: records affected: 1



GetName: 52758 ICEYE-X19

Hit Count: updated at: Sat, 13 Aug 2022 23:53:38 GMT